When you browse on this site, cookies collect data to enhance your experience and personalize the content and advertising you see.
Visit our Privacy Policy to learn more. By continuing to use the site, you agree to this use of cookies and data.
  • In Belgium
  • List of Countries
  • For 7 days
  • Water Temperature
  • Satellite Maps
  • Weather Map
  • Weather Widgets
  • user-avatar
    Login

    Hourly Weather Batina

    Today, 18 July, Thursday

    Time Temperature Precipitation Wind Pressure Humidity
    00:00 +26°C° 0 mm 2 mps 670 mmHg 41%
    01:00 +25°C° 0.1 mm 2 mps 670 mmHg 43%
    02:00 +25°C° 0.1 mm 2 mps 670 mmHg 46%
    03:00 +24°C° 0.1 mm 2 mps 670 mmHg 48%
    04:00 +25°C° 0.1 mm 3 mps 670 mmHg 47%
    05:00 +25°C° 0.1 mm 4 mps 670 mmHg 47%
    06:00 +25°C° 0.1 mm 4 mps 670 mmHg 46%
    07:00 +26°C° 0.1 mm 4 mps 671 mmHg 44%
    08:00 +27°C° 0.1 mm 4 mps 671 mmHg 41%
    09:00 +28°C° 0.1 mm 3 mps 672 mmHg 39%
    10:00 +29°C° 0 mm 4 mps 672 mmHg 35%
    11:00 +30°C° 0 mm 4 mps 672 mmHg 32%
    12:00 +32°C° 0 mm 5 mps 672 mmHg 28%
    13:00 +32°C° 0 mm 5 mps 672 mmHg 27%
    14:00 +33°C° 0 mm 5 mps 672 mmHg 26%
    15:00 +33°C° 0 mm 6 mps 671 mmHg 24%
    16:00 +32°C° 0 mm 6 mps 671 mmHg 26%
    17:00 +30°C° 0 mm 6 mps 671 mmHg 27%
    18:00 +29°C° 0 mm 7 mps 672 mmHg 28%
    19:00 +28°C° 0 mm 6 mps 672 mmHg 31%
    20:00 +26°C° 0 mm 4 mps 672 mmHg 34%
    21:00 +24°C° 0 mm 3 mps 672 mmHg 37%
    22:00 +24°C° 0 mm 3 mps 672 mmHg 38%
    23:00 +23°C° 0 mm 2 mps 672 mmHg 40%

    Tomorrow, 19 July, Friday

    Time Temperature Precipitation Wind Pressure Humidity
    00:00 +21°C° 0 mm 2 mps 672 mmHg 42%
    01:00 +21°C° 0 mm 2 mps 671 mmHg 43%
    02:00 +21°C° 0 mm 1 mps 671 mmHg 44%
    03:00 +21°C° 0 mm 1 mps 671 mmHg 45%
    04:00 +22°C° 0 mm 1 mps 671 mmHg 42%
    05:00 +21°C° 0 mm 0 mps 672 mmHg 39%
    06:00 +22°C° 0 mm 0 mps 673 mmHg 36%
    07:00 +26°C° 0 mm 1 mps 673 mmHg 34%
    08:00 +28°C° 0 mm 1 mps 674 mmHg 31%
    09:00 +29°C° 0 mm 2 mps 674 mmHg 28%
    10:00 +30°C° 0 mm 3 mps 674 mmHg 26%
    11:00 +33°C° 0 mm 3 mps 675 mmHg 23%
    12:00 +34°C° 0 mm 4 mps 675 mmHg 20%
    13:00 +34°C° 0 mm 5 mps 674 mmHg 20%
    14:00 +35°C° 0 mm 5 mps 674 mmHg 20%
    15:00 +35°C° 0 mm 6 mps 674 mmHg 20%
    16:00 +34°C° 0 mm 5 mps 674 mmHg 21%
    17:00 +34°C° 0 mm 5 mps 673 mmHg 23%
    18:00 +33°C° 0 mm 4 mps 673 mmHg 24%
    19:00 +30°C° 0 mm 3 mps 673 mmHg 28%
    20:00 +28°C° 0 mm 2 mps 673 mmHg 32%
    21:00 +27°C° 0 mm 1 mps 673 mmHg 37%
    22:00 +26°C° 0 mm 1 mps 672 mmHg 38%
    23:00 +25°C° 0 mm 1 mps 672 mmHg 40%

    Day after tomorrow, 20 July, Saturday

    Time Temperature Precipitation Wind Pressure Humidity
    00:00 +25°C° 0 mm 1 mps 672 mmHg 42%
    01:00 +25°C° 0 mm 1 mps 672 mmHg 44%
    02:00 +24°C° 0 mm 1 mps 672 mmHg 45%
    03:00 +24°C° 0 mm 2 mps 672 mmHg 47%
    04:00 +25°C° 0 mm 2 mps 672 mmHg 45%
    05:00 +26°C° 0 mm 2 mps 673 mmHg 44%
    06:00 +26°C° 0 mm 2 mps 673 mmHg 42%
    07:00 +28°C° 0 mm 3 mps 674 mmHg 38%
    08:00 +30°C° 0 mm 4 mps 674 mmHg 34%
    09:00 +32°C° 0 mm 6 mps 675 mmHg 31%
    10:00 +33°C° 0 mm 6 mps 675 mmHg 28%
    11:00 +35°C° 0 mm 6 mps 675 mmHg 26%
    12:00 +36°C° 0 mm 7 mps 675 mmHg 24%
    13:00 +36°C° 0 mm 7 mps 675 mmHg 24%
    14:00 +36°C° 0 mm 6 mps 675 mmHg 24%
    15:00 +36°C° 0 mm 6 mps 674 mmHg 25%
    16:00 +35°C° 0 mm 5 mps 674 mmHg 26%
    17:00 +34°C° 0 mm 4 mps 674 mmHg 27%
    18:00 +34°C° 0 mm 3 mps 674 mmHg 28%
    19:00 +31°C° 0 mm 2 mps 674 mmHg 32%
    20:00 +29°C° 0 mm 1 mps 674 mmHg 37%
    21:00 +26°C° 0 mm 0 mps 674 mmHg 41%
    22:00 +25°C° 0 mm 0 mps 674 mmHg 43%
    23:00 +25°C° 0 mm 0 mps 673 mmHg 44%

    21 July, Sunday

    Time Temperature Precipitation Wind Pressure Humidity
    00:00 +24°C° 0 mm 0 mps 673 mmHg 45%
    01:00 +26°C° 0 mm 1 mps 673 mmHg 45%
    02:00 +26°C° 0 mm 1 mps 673 mmHg 45%
    03:00 +25°C° 0 mm 1 mps 672 mmHg 45%
    04:00 +26°C° 0 mm 1 mps 673 mmHg 43%
    05:00 +27°C° 0 mm 1 mps 674 mmHg 41%
    06:00 +28°C° 0 mm 1 mps 674 mmHg 38%
    07:00 +29°C° 0 mm 1 mps 675 mmHg 35%
    08:00 +31°C° 0 mm 2 mps 675 mmHg 32%
    09:00 +32°C° 0 mm 2 mps 676 mmHg 28%
    10:00 +34°C° 0 mm 3 mps 676 mmHg 25%
    11:00 +35°C° 0 mm 4 mps 676 mmHg 22%
    12:00 +36°C° 0 mm 4 mps 676 mmHg 19%
    13:00 +36°C° 0 mm 5 mps 676 mmHg 17%
    14:00 +37°C° 0 mm 5 mps 675 mmHg 16%
    15:00 +37°C° 0 mm 5 mps 675 mmHg 14%
    16:00 +36°C° 0 mm 5 mps 675 mmHg 15%
    17:00 +35°C° 0 mm 5 mps 675 mmHg 16%
    18:00 +34°C° 0 mm 5 mps 674 mmHg 17%
    19:00 +32°C° 0 mm 4 mps 674 mmHg 27%
    20:00 +29°C° 0 mm 2 mps 674 mmHg 37%
    21:00 +26°C° 0 mm 1 mps 674 mmHg 47%
    22:00 +26°C° 0 mm 1 mps 674 mmHg 49%
    23:00 +25°C° 0 mm 1 mps 674 mmHg 51%

    22 July, Monday

    Time Temperature Precipitation Wind Pressure Humidity
    00:00 +25°C° 0 mm 1 mps 674 mmHg 52%
    01:00 +24°C° 0 mm 1 mps 674 mmHg 55%
    02:00 +22°C° 0 mm 0 mps 673 mmHg 58%
    03:00 +21°C° 0 mm 0 mps 673 mmHg 61%
    04:00 +22°C° 0 mm 0 mps 673 mmHg 57%
    05:00 +25°C° 0 mm 1 mps 674 mmHg 53%
    06:00 +26°C° 0 mm 1 mps 674 mmHg 49%
    07:00 +27°C° 0 mm 1 mps 675 mmHg 44%
    08:00 +29°C° 0 mm 2 mps 675 mmHg 40%
    09:00 +30°C° 0 mm 2 mps 676 mmHg 35%
    10:00 +31°C° 0 mm 3 mps 676 mmHg 32%
    11:00 +33°C° 0 mm 3 mps 676 mmHg 28%
    12:00 +34°C° 0 mm 4 mps 676 mmHg 25%
    13:00 +34°C° 0 mm 4 mps 675 mmHg 24%
    14:00 +34°C° 0 mm 4 mps 675 mmHg 24%
    15:00 +34°C° 0 mm 5 mps 675 mmHg 23%
    16:00 +34°C° 0 mm 5 mps 674 mmHg 25%
    17:00 +33°C° 0 mm 5 mps 674 mmHg 26%
    18:00 +32°C° 0 mm 5 mps 674 mmHg 28%
    19:00 +30°C° 0 mm 3 mps 674 mmHg 32%
    20:00 +28°C° 0 mm 2 mps 674 mmHg 36%
    21:00 +27°C° 0 mm 1 mps 674 mmHg 40%
    22:00 +26°C° 0 mm 1 mps 673 mmHg 41%
    23:00 +25°C° 0 mm 1 mps 673 mmHg 43%

    23 July, Tuesday

    Time Temperature Precipitation Wind Pressure Humidity
    00:00 +25°C° 0 mm 1 mps 673 mmHg 44%
    01:00 +24°C° 0 mm 1 mps 673 mmHg 45%
    02:00 +24°C° 0 mm 1 mps 672 mmHg 45%
    03:00 +23°C° 0 mm 1 mps 672 mmHg 46%
    04:00 +24°C° 0 mm 1 mps 672 mmHg 43%
    05:00 +25°C° 0 mm 2 mps 673 mmHg 39%
    06:00 +26°C° 0 mm 2 mps 673 mmHg 36%
    07:00 +27°C° 0 mm 2 mps 674 mmHg 33%
    08:00 +28°C° 0 mm 2 mps 674 mmHg 30%
    09:00 +30°C° 0 mm 2 mps 675 mmHg 27%
    10:00 +31°C° 0 mm 3 mps 675 mmHg 25%
    11:00 +33°C° 0 mm 3 mps 674 mmHg 24%
    12:00 +34°C° 0 mm 4 mps 674 mmHg 22%
    13:00 +34°C° 0 mm 4 mps 674 mmHg 21%
    14:00 +34°C° 0 mm 4 mps 674 mmHg 20%
    15:00 +35°C° 0 mm 4 mps 673 mmHg 20%
    16:00 +34°C° 0 mm 4 mps 673 mmHg 20%
    17:00 +33°C° 0 mm 5 mps 673 mmHg 21%
    18:00 +33°C° 0 mm 5 mps 673 mmHg 22%
    19:00 +30°C° 0 mm 3 mps 672 mmHg 25%
    20:00 +28°C° 0 mm 2 mps 672 mmHg 29%
    21:00 +26°C° 0 mm 1 mps 672 mmHg 33%
    22:00 +25°C° 0 mm 1 mps 672 mmHg 34%
    23:00 +25°C° 0 mm 1 mps 672 mmHg 35%
    Show more